Simultaneous Nadir Overpasses (SNOs) Predictions

Prediction of SNOs between GOES-16 and METOP-B Satellite Orbit:

Table of predicted SNOs for the next 14.0 days since TLE Epoch: 3/7/2020
Index Date Time (GOES-16) GOES-16 Lat,Lon METOP-B Lat,Lon Distance(km) Time Diff (sec)
1 03/08/2020 02:47:28 0.02, -75.18 -0.94, -79.43 484.64 80
2 03/09/2020 02:29:30 0.02, -75.18 0.21, -74.44 84.10 80
3 03/10/2020 14:45:42 -0.02, -75.19 0.82, -79.00 434.60 80
4 03/11/2020 14:27:42 -0.02, -75.19 -0.27, -74.00 134.57 80
5 03/13/2020 02:44:03 0.02, -75.18 -0.77, -78.60 390.50 80
6 03/14/2020 02:26:04 0.02, -75.18 0.38, -73.61 178.78 80
7 03/15/2020 14:42:17 -0.03, -75.20 0.65, -78.17 339.33 80
8 03/16/2020 14:24:18 -0.03, -75.20 -0.50, -73.19 230.27 80
9 03/18/2020 02:43:18 0.04, -75.20 -0.52, -77.78 293.86 80
10 03/19/2020 02:19:59 0.04, -75.21 0.57, -72.78 276.10 80
11 03/20/2020 14:38:52 -0.04, -75.24 0.40, -77.36 240.78 80




NCC Satellite Simultaneous Nadir Overpasses (SNOs) Prediction Service
